Zurück zum Katalog

STARLINK-5473

AktivKommunikationVLEO
NORAD 55663·PAYLOAD·🇺🇸 United States

Gestartet Feb 17, 2023 von Vandenberg Space Force Base

Loading…

Nächste Überflüge (nächste 24 Stunden)

TLE

AktuellSource: CelesTrak SupGP

Epoche: Sep 14, 2026, 14:54 UTC

1 55663C 23021AM  26257.62131944 -.00045787  00000+0 -38388-2 0  2576
2 55663  70.0024  48.0764 0003332 263.1455 147.8559 14.98336106    17

Verfolge STARLINK-5473 in Echtzeit mit AllMySat

Download on the App Store